Havre-Saint-Pierre, Quebec

3:55 AM EDT on April 22, 2018 (GMT -0400)
Havre-Saint-Pierre

Weather History for CYGV - February, 2013

Change the Weather History Date:

Monday, February 11, 2013

  Actual Average Record
Temperature  
Mean Temperature 14 °F -  
Max Temperature 26 °F 20 °F 30 °F (2005)
Min Temperature 1 °F 3 °F -23 °F (2015)
Degree Days  
Heating Degree Days 52    
Moisture  
Dew Point 11 °F    
Average Humidity 76    
Maximum Humidity 100    
Minimum Humidity 50    
Precipitation  
Precipitation 0.00 in - - ()
Sea Level Pressure  
Sea Level Pressure 29.98 in    
Wind  
Wind Speed 5 mph ()    
Max Wind Speed 10 mph    
Max Gust Speed -    
Visibility 7.6 miles    
Events Snow    
Averages and records for this station are not official NWS values.
T = Trace of Precipitation, MM = Missing Value Source: Averaged Metar Reports

Daily Weather History Graph

Daily Weather History Graph

Search for Another Location

Airport or City:

Astronomy

Feb. 11, 2013 Rise Set
Actual Time 6:32 AM EST 4:25 PM EST
Civil Twilight 5:58 AM EST 4:59 PM EST
Nautical Twilight 5:20 AM EST 5:38 PM EST
Astronomical Twilight 4:42 AM EST 6:15 PM EST
Moon 6:40 AM EST (2/11) 6:35 PM EST (2/11)
Length of Visible Light 11h 01m
Length of Day
9h 53m
Waxing Crescent, 3% of the Moon is Illuminated
Feb 11
Waxing Crescent
Feb 17
First Quarter
Feb 25
Full
Mar 4
Last Quarter
Mar 11
New

Hourly Weather History & Observations

Time (EST) Temp. Windchill Dew Point Humidity Pressure Visibility Wind Dir Wind Speed Gust Speed Precip Events Conditions
12:00 AM 3.2 °F -6.2 °F -2.2 °F 78% 30.13 in 9.0 mi West 4.6 mph - N/A   Clear
1:00 AM 12.2 °F 0.7 °F 3.2 °F 67% 30.15 in 9.0 mi West 8.1 mph - N/A   Clear
2:00 AM 10.4 °F 4.0 °F 1.4 °F 67% 30.12 in 9.0 mi West 3.5 mph - N/A   Clear
3:00 AM 10.4 °F -0.4 °F 1.4 °F 67% 30.09 in 9.0 mi NW 6.9 mph - N/A   Clear
4:00 AM 3.2 °F - -2.2 °F 78% 30.08 in 9.0 mi NNW 2.3 mph - N/A   Clear
5:00 AM 3.2 °F - -2.2 °F 78% 30.09 in 9.0 mi Calm Calm - N/A   Clear
6:00 AM 1.4 °F -6.2 °F -4.0 °F 78% 30.10 in 9.0 mi North 3.5 mph - N/A   Clear
7:00 AM 5.0 °F -2.1 °F -0.4 °F 78% 30.14 in 9.0 mi NE 3.5 mph - N/A   Mostly Cloudy
7:50 AM 8.6 °F 0.1 °F 3.2 °F 79% 30.12 in 5.0 mi NE 4.6 mph - N/A   Haze
7:57 AM 10.4 °F 2.2 °F 3.2 °F 73% 30.13 in 7.0 mi NNE 4.6 mph - N/A   Overcast
8:00 AM 10.4 °F 4.0 °F 3.2 °F 73% 30.14 in 8.0 mi North 3.5 mph - N/A   Overcast
9:00 AM 14.0 °F 8.2 °F 3.2 °F 62% 30.12 in 9.0 mi NE 3.5 mph - N/A   Partly Cloudy
10:00 AM 17.6 °F 12.3 °F 3.2 °F 53% 30.10 in 9.0 mi West 3.5 mph - N/A   Clear
11:00 AM 21.2 °F 11.7 °F 5.0 °F 50% 30.06 in 9.0 mi West 8.1 mph - N/A   Clear
12:00 PM 23.0 °F 13.9 °F 14.0 °F 68% 30.04 in 9.0 mi West 8.1 mph - N/A   Partly Cloudy
1:00 PM 24.8 °F 16.1 °F 17.6 °F 74% 30.01 in 9.0 mi West 8.1 mph - N/A   Clear
2:00 PM 24.8 °F 15.3 °F 17.6 °F 74% 29.97 in 9.0 mi West 9.2 mph - N/A   Clear
3:00 PM 23.0 °F 15.8 °F 17.6 °F 80% 29.96 in 9.0 mi West 5.8 mph - N/A   Clear
4:00 PM 23.0 °F - 17.6 °F 80% 29.94 in 9.0 mi Variable 2.3 mph - N/A   Clear
6:00 PM 19.4 °F 12.8 °F 15.8 °F 86% 29.93 in 9.0 mi NE 4.6 mph - N/A   Overcast
7:00 PM 21.2 °F 13.6 °F 17.6 °F 86% 29.91 in 9.0 mi East 5.8 mph - N/A   Overcast
8:00 PM 21.2 °F 10.9 °F 17.6 °F 86% 29.87 in 9.0 mi East 9.2 mph - N/A   Overcast
9:00 PM 21.2 °F 10.1 °F 17.6 °F 86% 29.85 in 9.0 mi East 10.4 mph - N/A   Overcast
10:00 PM 21.2 °F 12.6 °F 17.6 °F 86% 29.83 in 9.0 mi East 6.9 mph - N/A   Overcast
10:38 PM 26.6 °F 19.1 °F 19.4 °F 74% 29.83 in 8.0 mi SE 6.9 mph - N/A Snow Light Snow
10:47 PM 26.6 °F 19.1 °F 19.4 °F 74% 29.83 in 5.0 mi SE 6.9 mph - N/A Snow Light Snow
10:51 PM 26.6 °F 17.5 °F 19.4 °F 74% 29.82 in 5.0 mi SSE 9.2 mph - N/A Snow Light Snow
11:00 PM 24.8 °F 16.1 °F 21.2 °F 86% 29.81 in 3.0 mi SE 8.1 mph - N/A Snow Light Snow
11:29 PM 24.8 °F 16.1 °F 21.2 °F 86% 29.79 in 2.2 mi East 8.1 mph - N/A Snow Light Snow
11:31 PM 24.8 °F 16.9 °F 21.2 °F 86% 29.78 in 1.8 mi East 6.9 mph - N/A Snow Light Snow
11:53 PM 23.0 °F 13.1 °F 23.0 °F 100% 29.77 in 1.5 mi East 9.2 mph - N/A Snow Light Snow